Regional Weather Roundup
Issued by NWS

Home | Current Version | Previous Version | Graphics & Text | Print | Product List | Glossary On
Versions: 1 2 3 4 5 6 7 8 9 10 11 12 13 14 15 16 17 18 19 20 21 22 23 24 25 26 27 28 29 30 31 32 33 34 35 36 37 38 39 40 41 42 43 44 45 46 47 48 49 50
000
ASUS43 KIND 240959
RWRIN

WEATHER ROUNDUP FOR INDIANA
NATIONAL WEATHER SERVICE INDIANAPOLIS IN
500 AM EST TUE JAN 24 2017

NOTE: "FAIR" INDICATES FEW OR NO CLOUDS BELOW 12,000 FEET WITH NO
SIGNIFICANT WEATHER AND/OR OBSTRUCTIONS TO VISIBILITY.

* - STATION DOES NOT REPORT WEATHER SUCH AS PRECIPITATION OR FOG.

+ - STATION NOT QUALITY CONTROLLED BY THE NATIONAL WEATHER SERVICE.
    USE DATA WITH CAUTION...ESPECIALLY DEWPOINT AND RELATIVE
    HUMIDITY OBSERVATIONS.

INZ001>003-010>013-019-020-241100-
NORTHWEST INDIANA

CITY           SKY/WX    TMP DP  RH WIND       PRES   REMARKS
MICHIGAN CITY+ CLOUDY    36  36 100 NW5       29.82S
MONTICELLO +   CLOUDY    38  34  83 NW9       29.82R
RENSSELAER +   CLOUDY    37  36  93 NW3       29.83R

$$

LMZ046-743>745-241100-
SOUTHERN LAKE MICHIGAN

STATION/POSITION TIME  TEMP    WIND        PRES    WAVE
                       AIR SEA DIR/SP/G            HT
                 (UTC) (F)     (DEG/KT/KT) (MB)    (FT)
BURNS HARBOR     0940   35     310/  8/  9 1010.8R
MICHIGAN CITY    0930   36     280/ 10/ 11   N/A

$$

INZ004-005-014>016-021>024-241100-
NORTH CENTRAL INDIANA

CITY           SKY/WX    TMP DP  RH WIND       PRES   REMARKS
GOSHEN         CLOUDY    39  35  86 NW10      29.78R
PERU/GRISSOM   CLOUDY    39  39 100 NW10      29.78R
SOUTH BEND     CLOUDY    37  36  96 NW8       29.80S

$$

INZ006>009-017-018-025>027-241100-
NORTHEAST INDIANA

CITY           SKY/WX    TMP DP  RH WIND       PRES   REMARKS
ANGOLA *+      CLOUDY    43  32  65 NW8       29.74S VSB 3/4
FORT WAYNE     DRIZZLE   40  37  89 NW9       29.76S
KENDALLVILLE + CLOUDY    38  38 100 NW8       29.76R FOG

$$

INZ028-029-035-036-043>045-051>053-241100-
WEST CENTRAL INDIANA

CITY           SKY/WX    TMP DP  RH WIND       PRES   REMARKS
CRAWFORDSVL +  CLOUDY    37  37 100 NW6       29.83R
LAFAYETTE      CLOUDY    38  36  92 NW6       29.83R
TERRE HAUTE    CLOUDY    40  33  76 NW8       29.84S

$$

INZ030>032-037>040-046>048-054>057-064-065-241100-
CENTRAL INDIANA

CITY           SKY/WX    TMP DP  RH WIND       PRES   REMARKS
INDIANAPOLIS   CLOUDY    40  35  83 NW12      29.81R
-EAGLE CREEK   CLOUDY    40  35  83 NW8       29.80R
KOKOMO +       CLOUDY    39  37  92 NW13      29.80R FOG
MT COMFORT *+  CLOUDY    37  37 100 NW12G17   29.80R
SHELBYVILLE    CLOUDY    40  37  89 NW10      29.79R

$$

INZ033-034-041-042-049-050-058-059-241100-
EAST CENTRAL INDIANA

CITY           SKY/WX    TMP DP  RH WIND       PRES   REMARKS
MUNCIE         CLOUDY    40  38  93 NW10      29.77S FOG

$$

INZ060-061-067>069-081>083-085>088-241100-
SOUTHWEST INDIANA

CITY           SKY/WX    TMP DP  RH WIND       PRES   REMARKS
EVANSVILLE     CLOUDY    41  34  76 VRB5      29.88R
HUNTINGBURG *+ CLOUDY    40  35  83 W7        29.87R

$$

INZ062-063-066-070>080-084-089>092-241100-
SOUTH CENTRAL AND SOUTHEAST INDIANA

CITY           SKY/WX    TMP DP  RH WIND       PRES   REMARKS
BLOOMINGTON    CLOUDY    40  32  73 N7        29.82R
MADISON *+     CLOUDY    39  37  93 NW7       29.81S
SEYMOUR +      CLOUDY    41  37  87 NW9       29.81R

$$




USA.gov is the U.S. government's official web portal to all federal, state and local government web resources and services.